"Pseudo-MPEC" for C0784H5

Created 2021 Jun 13 4:07:11 UT using Find_Orb

Click here for an explanation of pseudo-MPECs

 
 Astrometry: 
     C0784H5  C2021 06 10)M7`n^XcA!i;3K(MQ;uo%k/o-\R./CH'7?Ie:J/V]4^0eT`[T?=sV00
     C0784H5  C2021 06 10uKU'3J5F;8?d#Z4f6q!N\f(v!7;'ThVYD7l;(Vt\@w.,Z?Z_cl;-V00
     C0784H5  C2021 06 10vTOS4MDZj`,6B7h8E,DY%%uBA3B(0PX=+aSuGo\`X/(qTho4mNceV00
     C0784H5  C2021 06 10p+SlgcCE;QAnidba$Ap,l$talAj0``o9S\VP(6kYX:_!X\w2BCj^V00
     C0784H5 KC2021 06 10.43355519 27 56.72 +53 36 24.4    ~6ABM 21.68GVNEOCPV06
     C0784H5 KC2021 06 10.43904619 27 57.21 +53 36 35.6    ~6ABM 20.80GVNEOCPV06
     C0784H5 1C2021 06 10]7NmwibkBDGL8q9p1yKCUg%,SGOC=3TbMRQiCM4DSn\$.,ja13x9Z84
     C0784H5 1C2021 06 10H+:QOXd/Astrometryf]1L;8::EcPJq]:XHMN!@P,['5mEEYL\R7Z84
     C0784H5 1C2021 06 10bG*WaO@lSk)mIQuQRo'_*btw-s13/c%rd/)^Ir8:!_=R4n+*OD47Z84
     C0784H5 KC2021 06 11.29143619 29 34.29 +54 05 42.6    ~6B7b 21.65GVNEOCPV06
     C0784H5 KC2021 06 11.29509719 29 34.64 +54 05 50.6    ~6B7b 21.92GVNEOCPV06
     C0784H5 KC2021 06 11.29875819 29 35.01 +54 05 58.2    ~6B7b 22.13GVNEOCPV06
     C0784H5 KC2021 06 11.30241919 29 35.37 +54 06 05.9    ~6B7b 22.02GVNEOCPV06
     C0784H5 KC2021 06 11r2xlw2!:7M$FV*^YVPM1jj$8I.gGCX?/We,CAFZHJZY/r8?#fQmVH21
     C0784H5 KC2021 06 11oqIrjsredacted;#Il2ZX#Sd7UhK4QwMK9GIK?LCy=p@b4t,W'pnH21
     C0784H5 mC2021 06 12.25315819 31 23.89 +54 38 24.3    ~6C6M 21.76GVNEOCPV06
     C0784H5 mC2021 06 12.25432719 31 24.05 +54 38 25.7    ~6C6M       VNEOCPV06
     C0784H5 mC2021 06 12.25549919 31 24.18 +54 38 28.1    ~6C6M       VNEOCPV06
     C0784H5 KC2021 06 12]8sqDpDoK7qr;vkA?j^iF$QZXLf5S6]j)0bM'`Bclick,x9$m5p4H21
     C0784H5 KC2021 06 12.:MQa+here(Ad.bSR7,[Gn.for(U*4-wmTfcBtWexplanationo%H21

Station data:
(H21) Astronomical Research Observatory, Westfield  (N39.483057 W87.968270)
   US/Illinois. 0.76-m f/3.0 astrograph + CCD.
(V00) Kitt Peak-Bok  (N31.963127 W111.600190)  US/Arizona.
(V06) Catalina Sky Survey-Kuiper  (N32.416847 W110.732550)  US/Arizona.
   Observers T. A. Pruyne, B. M. Africano, E. J. Christensen, G. A. Farneth,
   D. C. Fuls, A. R. Gibbs, A. D. Grauer, H. Gröller, J. A. Johnson, R. A.
   Kowalski, S. M. Larson, G. J. Leonard, D. Rankin, R. L. Seaman, F. C.
   Shelly. 1.55-m reflector + CCD.
(Z84) Calar Alto-Schmidt  (N37.224049 W2.548210)  Spain.  Observer E. Schwab.
   Measurers E. Schwab, D. Koschny, M. Micheli. 0.8-m f/3 Schmidt + CCD.

Orbital elements:  C0784H5
   Perihelion 2021 Sep 1.075020 +/- 0.334232 TT =  1:48:01 (JD 2459458.575020)
Epoch 2021 Jun 12.0 TT = JDT 2459377.5   Earth MOID: 0.0550   AutoNEOCP
M 297.53706998 +/- 0.7055174        (J2000 ecliptic)
n   0.77043372 +/- 0.00570408       Peri.  185.70432 +/- 0.7260472
a   1.17845370 +/- 0.00581628       Node   163.12469 +/- 0.3946848
e   0.1918534 +/- 0.00406108        Incl.   17.46236 +/- 0.2306549
P   1.28/467.26d           H 21.9   G  0.15   U  9.3  
q 0.95236332 +/- 0.00147339    Q 1.40454408 +/- 0.0116713
From 20 observations 2021 June 10-12 (46.6 hr); mean residual 0".25
Residuals in arcseconds: 
210610 V00  .13+  .08-    210610 Z84  .21-  .03-    210611 H21  .11+  .09+    
210610 V00  .26+  .23-    210610 Z84  .27-  .16+    210612 V06  .05+  .66+    
210610 V00  .31+  .05-    210611 V06  .02+  .24-    210612 V06  .37+  .42-    
210610 V00  .62-  .26+    210611 V06  .13-  .01+    210612 V06  .43+  .51-    
210610 V06  .31+  .04-    210611 V06  .09-  .13-    210612 H21  .40-  .12+    
210610 V06  .00   .02-    210611 V06  .14-  .16-    210612 H21  .05-  .01-    
210610 Z84  .07+  .08+    210611 H21  .05+  .25+    

Ephemerides (geocentric):
Date (UTC) HH   RA              Dec         delta   r     elong  mag " sig PA
---- -- -- --  -------------   -----------  ------ ------ -----  --- ---- ---
2021 06 13 04  19 33 07.771   +55 09 14.94  .33723 1.1087  97.0 22.1 .205  85
2021 06 13 05  19 33 12.655   +55 10 39.28  .33712 1.1085  97.0 22.1 .205  86
2021 06 13 06  19 33 17.542   +55 12 03.59  .33701 1.1084  97.0 22.1 .206  87
2021 06 13 07  19 33 22.435   +55 13 27.89  .33690 1.1083  97.0 22.1 .207  88
2021 06 13 08  19 33 27.333   +55 14 52.16  .33680 1.1082  97.0 22.1 .207  88
2021 06 13 09  19 33 32.236   +55 16 16.41  .33669 1.1080  97.0 22.1 .208  89
2021 06 13 10  19 33 37.143   +55 17 40.64  .33658 1.1079  96.9 22.1 .208  90
2021 06 13 11  19 33 42.056   +55 19 04.86  .33647 1.1078  96.9 22.1 .209  91
2021 06 13 12  19 33 46.974   +55 20 29.05  .33636 1.1076  96.9 22.1 .209  92
2021 06 13 13  19 33 51.896   +55 21 53.22  .33626 1.1075  96.9 22.1 .210  92
2021 06 13 14  19 33 56.824   +55 23 17.36  .33615 1.1074  96.9 22.1 .210  93
2021 06 13 15  19 34 01.757   +55 24 41.49  .33604 1.1073  96.9 22.1 .210  94
2021 06 13 16  19 34 06.695   +55 26 05.60  .33593 1.1071  96.8 22.1 .211  95
2021 06 13 17  19 34 11.638   +55 27 29.69  .33582 1.1070  96.8 22.1 .211  96
2021 06 13 18  19 34 16.586   +55 28 53.76  .33572 1.1069  96.8 22.1 .212  97
2021 06 13 19  19 34 21.539   +55 30 17.81  .33561 1.1067  96.8 22.1 .212  98
2021 06 13 20  19 34 26.497   +55 31 41.83  .33550 1.1066  96.8 22.1 .213  99
2021 06 13 21  19 34 31.461   +55 33 05.84  .33539 1.1065  96.8 22.1 .213 100
2021 06 13 22  19 34 36.430   +55 34 29.83  .33528 1.1064  96.7 22.1 .214 101
2021 06 13 23  19 34 41.404   +55 35 53.79  .33517 1.1062  96.7 22.1 .214 102
2021 06 14 00  19 34 46.383   +55 37 17.74  .33507 1.1061  96.7 22.1 .215 103
2021 06 14 01  19 34 51.368   +55 38 41.67  .33496 1.1060  96.7 22.1 .215 104
2021 06 14 02  19 34 56.358   +55 40 05.57  .33485 1.1059  96.7 22.1 .216 105
2021 06 14 03  19 35 01.353   +55 41 29.46  .33474 1.1057  96.7 22.1 .216 106
2021 06 14 04  19 35 06.353   +55 42 53.32  .33463 1.1056  96.6 22.1 .217 107
2021 06 14 05  19 35 11.359   +55 44 17.17  .33452 1.1055  96.6 22.1 .217 108
2021 06 14 06  19 35 16.371   +55 45 41.00  .33441 1.1053  96.6 22.1 .218 109
2021 06 14 07  19 35 21.387   +55 47 04.81  .33430 1.1052  96.6 22.1 .219 111
2021 06 14 08  19 35 26.409   +55 48 28.59  .33420 1.1051  96.6 22.1 .220 112
2021 06 14 09  19 35 31.437   +55 49 52.36  .33409 1.1050  96.6 22.1 .221 113
2021 06 14 10  19 35 36.470   +55 51 16.11  .33398 1.1048  96.6 22.1 .221 114
2021 06 14 11  19 35 41.509   +55 52 39.84  .33387 1.1047  96.5 22.1 .222 115
2021 06 14 12  19 35 46.553   +55 54 03.55  .33376 1.1046  96.5 22.1 .223 117
2021 06 14 13  19 35 51.602   +55 55 27.24  .33365 1.1044  96.5 22.1 .225 118
2021 06 14 14  19 35 56.657   +55 56 50.91  .33354 1.1043  96.5 22.1 .226 119
2021 06 14 15  19 36 01.718   +55 58 14.56  .33343 1.1042  96.5 22.1 .227 120
2021 06 14 16  19 36 06.785   +55 59 38.19  .33332 1.1041  96.5 22.1 .228 122
2021 06 14 17  19 36 11.857   +56 01 01.80  .33321 1.1039  96.4 22.1 .230 123
2021 06 14 18  19 36 16.934   +56 02 25.39  .33310 1.1038  96.4 22.1 .231 124
2021 06 14 19  19 36 22.018   +56 03 48.97  .33299 1.1037  96.4 22.1 .233 126
2021 06 14 20  19 36 27.107   +56 05 12.52  .33289 1.1036  96.4 22.1 .235 127
2021 06 14 21  19 36 32.201   +56 06 36.06  .33278 1.1034  96.4 22.1 .237 128
2021 06 14 22  19 36 37.302   +56 07 59.58  .33267 1.1033  96.4 22.1 .239 130
2021 06 14 23  19 36 42.408   +56 09 23.07  .33256 1.1032  96.3 22.1 .241 131
2021 06 15 00  19 36 47.520   +56 10 46.55  .33245 1.1030  96.3 22.1 .243 132
2021 06 15 01  19 36 52.638   +56 12 10.01  .33234 1.1029  96.3 22.1 .246 134
2021 06 15 02  19 36 57.761   +56 13 33.45  .33223 1.1028  96.3 22.1 .248 135
2021 06 15 03  19 37 02.891   +56 14 56.87  .33212 1.1027  96.3 22.1 .251 136